Погода в Левенке

Россия / Брянская область     52°35′02″N   32°52′26″E
темп.,
°C
ветер,
м/с
пор.,
м/с
влажн.,
%
обл.,
%
осадки,
мм/ч
давл.,
гПа
погр.,
м
6 марта, сб
сб600:00−7сз3491100 0.1 101879
03:00−9сз479183 0.1 1020113
06:00−11сз34940 0.0 102054
09:00−9сз47910 0.0 1021178
12:00−4сз467962 0.0 1022500
15:00−3зсз457875 0.1 1021943
18:00−6зсз338680 0.1 102132
21:00−9з349040 0.1 102143
7 марта, вс
вс700:00−10юз47910 0.0 1020108
03:00−9юз612860 0.0 1018248
06:00−6юз81683100 0.0 1014514
09:00−3юз101882100 0.0 1010950
12:00−1зюз111890100 0.1 10061232
15:000зюз111894100 0.3 10041326
18:000зсз91590100 1.0 10041016
21:00−5з5108056 1.1 1006201
8 марта, пн
пн800:00−4зюз615882 0.0 1005457
03:00−4з7158416 0.0 1005682
06:00−9сз5127883 0.0 1006421
09:00−9сз5118241 0.0 1009460
12:00−6сз588127 0.0 1011673
15:00−4зсз577514 0.0 1012974
18:00−6зсз36827 0.0 1012117
21:00−9зсз238513 0.0 101421
9 марта, вт
вт900:00−10зсз238575 0.0 101521
03:00−11сз239268 0.0 101521
06:00−10ссз369594 0.0 1016160
09:00−10ссз479297 0.1 1018350
12:00−7ссз578490 0.0 1019815
15:00−6ссз568195 0.1 10211030
18:00−9ссз368899 0.1 1021170
21:00−12ссз339056 0.1 102434
10 марта, ср
ср1000:00−13сз22880 0.0 102520
03:00−13юз338916 0.0 102538
06:00−12юз488988 0.0 1024156
09:00−8зюз6128395 0.0 1023368
12:00−4з61077100 0.0 1023670
15:00−3з6973100 0.0 1022839
18:00−4з368299 0.0 1022147
21:00−7з338093 0.0 102326